Weather History for Sanford, NC

Change the Weather History Date:

Monday, April 7, 2014

  Actual Average (KRDU) Record (KRDU)
Temperature  
Mean Temperature 54 °F 58 °F  
Max Temperature 63 °F 70 °F 91 °F (1967)
Min Temperature 44 °F 46 °F 27 °F (1982)
Degree Days  
Heating Degree Days 12 8  
Month to date heating degree days 61  
Since 1 July heating degree days 3057  
Cooling Degree Days 0 1  
Month to date cooling degree days 7  
Year to date cooling degree days 19  
Growing Degree Days 4 (Base 50)    
Moisture  
Dew Point 48 °F    
Average Humidity 85    
Maximum Humidity 97    
Minimum Humidity 42    
Precipitation  
Precipitation 0.58 in 0.10 in 2.50 in (1899)
Month to date precipitation 0.74  
Year to date precipitation 11.58  
Snow  
Snow 0.00 in 0.10 in T in (2007)
Month to date snowfall 0.1  
Since 1 July snowfall 6.1  
Snow Depth -    
Sea Level Pressure  
Sea Level Pressure 29.89 in    
Wind  
Wind Speed 4 mph (East)    
Max Wind Speed 10 mph    
Max Gust Speed 17 mph    
Visibility 9 miles    
Events Rain    
T = Trace of Precipitation, MM = Missing Value Source: NWS Daily Summary

Daily Weather History Graph

Daily Weather History Graph

Search for Another Location

Airport:

Trip Planner

Search our weather history database for the weather conditions in past years. The results will help you decide how hot, cold, wet, or windy it might be!

Date:

Astronomy

Apr. 07, 2014 Rise Set
Actual Time 6:54 AM EDT 7:42 PM EDT
Civil Twilight 6:28 AM EDT 8:08 PM EDT
Nautical Twilight 5:58 AM EDT 8:39 PM EDT
Astronomical Twilight 5:26 AM EDT 9:11 PM EDT
Moon 12:54 PM EDT (4/7) 2:13 AM EDT (4/7)
Length of Visible Light 13h 40m
Length of Day
12h 48m
First Quarter, 53% of the Moon is Illuminated
Apr 7
First Quarter
Apr 15
Full
Apr 22
Last Quarter
Apr 29
New
May 6
First Quarter

Hourly Weather History & Observations

Time (EDT) Temp. Windchill Dew Point Humidity Pressure Visibility Wind Dir Wind Speed Gust Speed Precip Events Conditions
12:15 AM 55.6 °F - 35.8 °F 47% 30.09 in 10.0 mi NE 4.6 mph - N/A   Unknown
12:35 AM 55.6 °F - 35.2 °F 46% 30.09 in 10.0 mi NE 3.5 mph - N/A   Unknown
1:15 AM 54.9 °F - 35.1 °F 47% 30.08 in 10.0 mi Calm Calm - N/A   Unknown
1:35 AM 54.5 °F - 33.8 °F 46% 30.07 in 10.0 mi Calm Calm - N/A   Unknown
1:55 AM 54.5 °F - 32.4 °F 43% 30.07 in 10.0 mi East 4.6 mph - N/A   Unknown
2:15 AM 54.5 °F - 32.0 °F 42% 30.06 in 10.0 mi NE 3.5 mph - N/A   Unknown
2:35 AM 54.0 °F - 32.0 °F 43% 30.06 in 10.0 mi NE 3.5 mph - N/A   Unknown
2:55 AM 53.6 °F - 31.8 °F 44% 30.04 in 10.0 mi NE 4.6 mph - N/A Rain Rain
3:15 AM 52.9 °F - 32.2 °F 45% 30.02 in 10.0 mi NE 4.6 mph - N/A   Unknown
3:35 AM 52.7 °F - 33.6 °F 48% 30.02 in 10.0 mi NE 3.5 mph - N/A   Unknown
3:55 AM 52.2 °F - 35.6 °F 53% 30.01 in 10.0 mi Calm Calm - N/A Rain Rain
4:15 AM 51.8 °F - 36.9 °F 57% 30.00 in 10.0 mi NE 4.6 mph - N/A   Unknown
4:35 AM 50.9 °F - 38.5 °F 62% 30.00 in 10.0 mi North 5.8 mph - N/A   Unknown
4:55 AM 50.4 °F - 39.7 °F 67% 29.99 in 10.0 mi North 6.9 mph - N/A   Unknown
5:15 AM 49.5 °F - 40.8 °F 72% 29.98 in 10.0 mi NNE 8.1 mph - N/A   Light Drizzle
5:35 AM 48.7 °F - 42.1 °F 78% 29.98 in 10.0 mi NNE 5.8 mph - N/A Rain Rain
5:55 AM 47.5 °F - 44.4 °F 89% 29.99 in 10.0 mi Calm Calm - 0.01 in Rain Rain
6:15 AM 46.9 °F - 45.0 °F 93% 29.99 in 10.0 mi NNE 5.8 mph - 0.02 in Rain Light Rain
6:35 AM 46.8 °F - 45.1 °F 94% 29.99 in 10.0 mi NNE 5.8 mph - 0.02 in Rain Rain
6:55 AM 46.6 °F - 45.5 °F 96% 29.99 in 10.0 mi NNE 5.8 mph - 0.03 in Rain Light Rain
7:15 AM 46.6 °F - 45.3 °F 95% 29.98 in 7.0 mi NNE 8.1 mph - 0.03 in Rain Heavy Rain
7:35 AM 46.6 °F - 45.5 °F 96% 29.99 in 10.0 mi North 6.9 mph - 0.04 in Rain Light Rain
7:55 AM 45.9 °F 41.2 °F 44.8 °F 96% 29.98 in 10.0 mi NNE 9.2 mph - 0.05 in Rain Light Rain
8:15 AM 45.5 °F 41.8 °F 44.2 °F 95% 29.98 in 10.0 mi NNE 6.9 mph - N/A   Unknown
8:35 AM 45.1 °F 42.8 °F 44.2 °F 97% 29.96 in 1.5 mi North 4.6 mph - 0.09 in Rain Heavy Rain
8:55 AM 45.1 °F 41.4 °F 44.2 °F 97% 29.96 in 10.0 mi North 6.9 mph - 0.10 in Rain Light Rain
9:15 AM 44.8 °F 40.4 °F 43.7 °F 96% 29.96 in 7.0 mi NNE 8.1 mph - 0.03 in Rain Rain
9:35 AM 44.8 °F 41.6 °F 43.9 °F 97% 29.96 in 10.0 mi NNW 5.8 mph - 0.05 in Rain Rain
9:55 AM 45.0 °F 43.5 °F 43.9 °F 96% 29.96 in 10.0 mi North 3.5 mph - 0.07 in Rain Rain
10:15 AM 44.8 °F 41.0 °F 43.7 °F 96% 29.96 in 10.0 mi NNW 6.9 mph - 0.01 in Rain Light Rain
10:35 AM 44.8 °F 41.0 °F 43.9 °F 97% 29.94 in 10.0 mi NNE 6.9 mph - 0.02 in Rain Light Rain
10:55 AM 44.8 °F - 43.9 °F 97% 29.93 in 7.0 mi Calm Calm - 0.03 in Rain Light Rain
11:15 AM 45.0 °F - 44.1 °F 97% 29.94 in 2.5 mi Calm Calm - 0.05 in Rain Heavy Rain
11:35 AM 45.5 °F 40.8 °F 44.6 °F 97% 29.99 in 5.0 mi West 9.2 mph - 0.17 in Rain Heavy Rain
12:15 PM 45.7 °F 43.4 °F 44.4 °F 95% 29.97 in 5.0 mi NW 4.6 mph - 0.04 in Rain Rain
12:35 PM 46.2 °F 44.1 °F 44.8 °F 95% 29.95 in 10.0 mi NNW 4.6 mph - 0.07 in Rain Rain
12:55 PM 46.4 °F - 44.8 °F 94% 29.92 in 10.0 mi Calm Calm - 0.07 in Rain Light Rain
1:15 PM 46.9 °F - 45.5 °F 95% 29.92 in 10.0 mi Calm Calm - N/A Rain Rain
1:35 PM 47.5 °F - 46.2 °F 95% 29.90 in 10.0 mi ESE 4.6 mph - 0.01 in Rain Light Rain
1:55 PM 48.2 °F - 46.9 °F 95% 29.87 in 10.0 mi SSE 6.9 mph - 0.02 in Rain Light Rain
2:15 PM 48.9 °F - 47.7 °F 95% 29.86 in 10.0 mi SSE 4.6 mph - N/A   Unknown
2:35 PM 50.7 °F - 49.8 °F 97% 29.85 in 10.0 mi SSE 6.9 mph - N/A   Unknown
2:55 PM 52.2 °F - 51.1 °F 96% 29.85 in 10.0 mi WSW 3.5 mph - N/A Rain Light Rain
3:15 PM 52.7 °F - 51.3 °F 95% 29.88 in 10.0 mi SW 5.8 mph - N/A   Unknown
3:35 PM 53.6 °F - 52.3 °F 95% 29.87 in 10.0 mi Calm Calm - N/A   Unknown
3:55 PM 54.5 °F - 53.2 °F 96% 29.84 in 7.0 mi WSW 3.5 mph - 0.01 in Rain Rain
4:15 PM 54.7 °F - 53.4 °F 96% 29.83 in 10.0 mi South 5.8 mph - N/A   Light Drizzle
4:35 PM 55.4 °F - 54.5 °F 97% 29.80 in 10.0 mi SE 4.6 mph - N/A   Unknown
4:55 PM 56.3 °F - 55.2 °F 96% 29.79 in 10.0 mi South 5.8 mph - N/A   Light Drizzle
5:15 PM 57.2 °F - 55.4 °F 94% 29.76 in 10.0 mi SSE 9.2 mph - N/A Rain Rain
5:35 PM 58.6 °F - 56.3 °F 92% 29.73 in 10.0 mi SSW 5.8 mph 17.3 mph 0.01 in Rain Rain
5:55 PM 59.4 °F - 56.7 °F 91% 29.75 in 10.0 mi Calm Calm - 0.01 in   Unknown
6:15 PM 58.3 °F - 56.3 °F 93% 29.74 in 10.0 mi Calm Calm - N/A Rain Light Rain
6:35 PM 58.3 °F - 56.7 °F 94% 29.74 in 10.0 mi Calm Calm - N/A   Unknown
6:55 PM 57.6 °F - 56.7 °F 97% 29.75 in 7.0 mi Calm Calm - N/A   Unknown
7:15 PM 57.4 °F - 56.5 °F 97% 29.72 in 4.0 mi SE 4.6 mph - N/A Rain Light Rain
7:35 PM 58.3 °F - 57.4 °F 97% 29.73 in 10.0 mi SSW 3.5 mph - N/A   Unknown
7:55 PM 59.7 °F - 58.3 °F 95% 29.73 in 10.0 mi SSW 4.6 mph - N/A Rain Light Rain
8:15 PM 59.9 °F - 58.5 °F 95% 29.74 in 10.0 mi SSE 5.8 mph - N/A   Unknown
8:35 PM 60.3 °F - 58.8 °F 95% 29.73 in 10.0 mi South 4.6 mph - N/A   Unknown
8:55 PM 61.0 °F - 59.4 °F 94% 29.74 in 10.0 mi South 3.5 mph - N/A Rain Rain
9:15 PM 61.7 °F - 60.1 °F 94% 29.74 in 10.0 mi South 9.2 mph - 0.01 in   Light Drizzle
9:35 PM 63.1 °F - 61.0 °F 93% 29.73 in 10.0 mi South 8.1 mph 16.1 mph 0.01 in   Unknown
9:55 PM 63.5 °F - 61.2 °F 92% 29.73 in 10.0 mi South 10.4 mph 17.3 mph 0.01 in   Unknown
10:15 PM 63.5 °F - 61.2 °F 92% 29.71 in 10.0 mi South 9.2 mph 17.3 mph N/A   Unknown
10:35 PM 63.5 °F - 61.0 °F 91% 29.71 in 10.0 mi SSW 9.2 mph - N/A   Unknown
10:55 PM 63.1 °F - 61.0 °F 93% 29.70 in 10.0 mi SSW 9.2 mph - N/A   Unknown
11:15 PM 62.8 °F - 60.8 °F 93% 29.69 in 10.0 mi South 8.1 mph - N/A   Unknown
11:35 PM 62.1 °F - 60.4 °F 94% 29.69 in 10.0 mi South 6.9 mph - N/A   Unknown
11:55 PM 62.2 °F - 60.8 °F 95% 29.67 in 10.0 mi South 5.8 mph - N/A   Unknown